Terminal Aerodrome Forecast
Issued by NWS Oklahoma City, OK

Home | Current Version | Previous Version | Text Only | Print | Product List | Glossary On
Versions: 1 2 3 4 5 6 7 8 9 10 11 12 13 14 15 16 17 18 19 20 21 22 23 24
000
FTUS44 KOUN 012325
TAFOUN
TAF
KOUN 012325Z 0200/0224 18012KT P6SM SCT080 BKN120
      TEMPO 0209/0213 5SM -TSRA BKN050CB
     FM021300 18012KT P6SM BKN080 OVC100 PROB30 0213/0217 5SM -TSRA
      BKN040CB=

USA.gov is the U.S. government's official web portal to all federal, state and local government web resources and services.